Location: Unspecified
(46.0725°N, 13.7344°E)
Time: 09:29:40
(UTC+02:00)

Cosmos 2058 - Pass Details

Date: 21 June 2024
Orbit: 545 x 564 km, 82.5° (Epoch: 17 July)

Event Time Altitude Azimuth Distance (km) Brightness Sun altitude
Exits shadow 02:58:53 14° 151° (SSE) 1,602 4.9 -16.0°
Maximum altitude 03:01:53 33° 91° (E) 947 4.2 -15.8°
Drops below altitude 10° 03:05:35 10° 27° (NNE) 1,865 6.9 -15.5°
Sets 03:07:55 0° 18° (NNE) 2,769 8.1 -15.3°
